Location: Eurasberg
(48.3353°N, 11.0839°E)
Time: 09:27:28
(UTC+00:00)

Cosmos 407 Rocket - Pass Details

Date: 18 January 2026
Orbit: 738 x 782 km, 74.0° (Epoch: 17 February)

Event Time Altitude Azimuth Distance (km) Brightness Sun altitude
Rises 05:13:56 0° 195° (SSW) 3,170 6.7 -17.1°
Reaches altitude 10° 05:16:16 10° 194° (SSW) 2,255 5.9 -16.8°
Maximum altitude 05:21:22 75° 110° (ESE) 783 3.7 -15.9°
Drops below altitude 10° 05:26:34 10° 26° (NNE) 2,299 6.1 -15.1°
Sets 05:28:57 0° 25° (NNE) 3,236 6.9 -14.7°
